Domov               UVHVVR             MKGP            O straneh              
ZDRAVSTVENO VARSTVO RASTLIN
  MREŽA AGROMET. POSTAJ
 ► PROGNOSTIČNA OBVESTILA
AGROMETEOROLOŠKI PODATKI -
ARSO
OBVLADOVANJE TVEGANJ ZARADI
NEUGODNIH VREMENSKIH RAZMER
  ► NARAVNE NESREČE
  ► SUŠA/MOČA
  ► NAMAKANJE
  ► ŽLED (gozdarstvo)
KARTOGRAFSKI PRIKAZI
SPLETNE POVEZAVE
PROJEKTI IN PUBLIKACIJE

AGROMETEOROLOŠKA MREŽA: VREMENSKE POSTAJE IN FENOLOŠKA OPAZOVANJA

Pregled podatkov za lokacijo Slovenske Konjice, meteorološka postaja 37885

Pregled senzorjev na lokaciji

ID Ime Zadnja
vrednost
Datum
zadnje
spremembe
Tip
senzorja
4060 Temperatura 2 m ( °C) 24,3 °C 24.6.2017 22:00 50YA
4061 Relativna vlaga 2 m (% RH) 78,39 % RH 24.6.2017 22:00 50YA
4062 Padavine 0.2 mm (mm) 0 mm 24.6.2017 22:00 Rain-O-Matic
4063 Omočenost lista (U) 0 U 24.6.2017 22:00 A730WET

Pregled podatkov zadnjih 24 ur

Zap.
št.
Datum in čas Slovenske Konjice
Omočenost
lista
Padavine
0.2
mm
Relativna
vlaga
2
m
Temperatura
2
m
0 24.6.2017 21:00 0 0 78,39 24,3
1 24.6.2017 20:30 0 0 78,97 24,22
2 24.6.2017 20:00 0 0 76,39 24,98
3 24.6.2017 19:30 0 0 76,12 25,42
4 24.6.2017 19:00 0 0 69,26 27,5
5 24.6.2017 18:30 0 0 62,32 29,62
6 24.6.2017 18:00 0 0 62,1 29,06
7 24.6.2017 17:30 0 0 60,9 29,04
8 24.6.2017 17:00 0 0 61 28,72
9 24.6.2017 16:30 0 0 62,44 27,84
10 24.6.2017 16:00 0 0 61,64 28,42
11 24.6.2017 15:30 0 0 59,73 29,5
12 24.6.2017 15:00 0 0 53,02 31,43
13 24.6.2017 14:30 0 0 49,38 32,53
14 24.6.2017 14:00 0 0 48,42 32,36
15 24.6.2017 13:30 0 0 47,99 32,01
16 24.6.2017 13:00 0 0 48,99 31,48
17 24.6.2017 12:30 0 0 51,55 30,74
18 24.6.2017 12:00 0 0 53,38 30,06
19 24.6.2017 11:30 0 0 50,77 30,18
20 24.6.2017 11:00 0 0 49,01 29,52
21 24.6.2017 10:30 0 0 51,7 28,91
22 24.6.2017 10:00 0 0 53,36 27,96
23 24.6.2017 09:30 0 0 55,43 26,91
24 24.6.2017 09:00 0 0 57,02 26,79
25 24.6.2017 08:30 0 0 57,41 26,06
26 24.6.2017 08:00 0 0 58,71 24,76
27 24.6.2017 07:30 0 0 61,44 23,86
28 24.6.2017 07:00 0 0 62,83 23,49
29 24.6.2017 06:30 0 0 66,62 22,71
30 24.6.2017 06:00 0 0 70,57 21,49
31 24.6.2017 05:30 0 0 83,32 19,02
32 24.6.2017 05:00 0 0 90,06 17,29
33 24.6.2017 04:30 0 0 92,5 16,58
34 24.6.2017 04:00 0 0 91,72 16,92
35 24.6.2017 03:30 0 0 90,55 17,17
36 24.6.2017 03:00 0 0 87,89 17,92
37 24.6.2017 02:30 0 0 83,3 19,19
38 24.6.2017 02:00 0 0 77,22 19,88
39 24.6.2017 01:30 0 0 79,27 19,61
40 24.6.2017 01:00 0 0 77,56 19,49
41 24.6.2017 00:30 0 0 77,29 19,49
42 24.6.2017 00:00 0 0 75,9 19,76
43 23.6.2017 23:30 0 0 73,41 19,83
44 23.6.2017 23:00 0 0 63,32 21,05
© 2011 Ministrstvo za kmetijstvo, gozdarstvo in prehrano. Vse pravice pridržane.